| time (UTC) | temp F | wind direction | speed MPH | gust MPH | rain 1hr in | rain 24hr in | rain mn in | humidity % | barometer mb |
| 20260831211004 | 90 | 293 | 3.0 | 5.0 | 0.00 | 0.00 | 0.00 | 59 | 1020.6 |
| 20260831210004 | 90 | 293 | 2.0 | 3.0 | 0.00 | 0.00 | 0.00 | 58 | 1020.6 |
| 20260831205004 | 90 | 293 | 2.0 | 3.0 | 0.00 | 0.00 | 0.00 | 57 | 1020.6 |
| 20260831204004 | 89 | 293 | 2.0 | 7.0 | 0.00 | 0.00 | 0.00 | 59 | 1020.8 |
| 20260831203004 | 88 | 293 | 3.0 | 7.0 | 0.00 | 0.00 | 0.00 | 61 | 1020.8 |
| 20260831181003 | 85 | 273 | 1.0 | 3.0 | 0.00 | 0.00 | 0.00 | 67 | 1022.0 |
| 20260831180003 | 85 | 273 | 1.0 | 3.0 | 0.00 | 0.00 | 0.00 | 69 | 1022.2 |
| 20260831175003 | 85 | 273 | 1.0 | 6.0 | 0.00 | 0.00 | 0.00 | 66 | 1022.2 |
| 20260831174003 | 85 | 273 | 1.0 | 3.0 | 0.00 | 0.00 | 0.00 | 67 | 1022.2 |
| 20260831173003 | 85 | 273 | 3.0 | 7.0 | 0.00 | 0.00 | 0.00 | 66 | 1022.4 |
| 20260831172004 | 85 | 273 | 2.0 | 3.0 | 0.00 | 0.00 | 0.00 | 70 | 1022.4 |
| 20260831171004 | 85 | 273 | 2.0 | 6.0 | 0.00 | 0.00 | 0.00 | 68 | 1022.6 |
| 20260831151003 | 78 | 355 | 0.0 | 0.0 | 0.00 | 0.00 | 0.00 | 84 | 1023.4 |
| 20260831150003 | 78 | 355 | 0.0 | 0.0 | 0.00 | 0.00 | 0.00 | 85 | 1023.4 |
| 20260831145003 | 77 | 355 | 0.0 | 0.0 | 0.00 | 0.00 | 0.00 | 85 | 1023.4 |
| 20260831144004 | 77 | 355 | 0.0 | 3.0 | 0.00 | 0.00 | 0.00 | 86 | 1023.5 |
| 20260831143003 | 77 | 355 | 0.0 | 3.0 | 0.00 | 0.00 | 0.00 | 85 | 1023.3 |
| 20260831142003 | 77 | 355 | 1.0 | 5.0 | 0.00 | 0.00 | 0.00 | 86 | 1023.3 |
| 20260831141004 | 76 | 355 | 0.0 | 3.0 | 0.00 | 0.00 | 0.00 | 86 | 1023.1 |
| 20260831140003 | 75 | 355 | 0.0 | 2.0 | 0.00 | 0.00 | 0.00 | 88 | 1023.1 |
| 20260831135004 | 74 | 355 | 0.0 | 0.0 | 0.00 | 0.00 | 0.00 | 90 | 1023.1 |
| 20260831134003 | 73 | 355 | 0.0 | 0.0 | 0.00 | 0.00 | 0.00 | 91 | 1023.1 |
| 20260831133004 | 72 | 355 | 0.0 | 1.0 | 0.00 | 0.00 | 0.00 | 91 | 1023.2 |
| 20260831132003 | 72 | 355 | 0.0 | 2.0 | 0.00 | 0.00 | 0.00 | 90 | 1023.2 |
| 20260831131004 | 71 | 350 | 0.0 | 1.0 | 0.00 | 0.00 | 0.00 | 91 | 1023.4 |
| 20260831130004 | 70 | 351 | 0.0 | 2.0 | 0.00 | 0.00 | 0.00 | 91 | 1023.4 |
| 20260831125004 | 69 | 351 | 0.0 | 1.0 | 0.00 | 0.00 | 0.00 | 91 | 1023.1 |
| 20260831124004 | 69 | 351 | 0.0 | 0.0 | 0.00 | 0.00 | 0.00 | 91 | 1023.1 |
| 20260831123003 | 68 | 351 | 0.0 | 0.0 | 0.00 | 0.00 | 0.00 | 91 | 1023.0 |
| 20260831122004 | 68 | 351 | 0.0 | 0.0 | 0.00 | 0.00 | 0.00 | 91 | 1022.9 |
| 20260831111004 | 67 | 351 | 0.0 | 0.0 | 0.00 | 0.00 | 0.00 | 91 | 1022.5 |
| 20260831110003 | 67 | 351 | 0.0 | 1.0 | 0.00 | 0.00 | 0.00 | 91 | 1022.4 |
| 20260831105004 | 67 | 351 | 0.0 | 0.0 | 0.00 | 0.00 | 0.00 | 91 | 1022.1 |
| 20260831104003 | 67 | 351 | 0.0 | 0.0 | 0.00 | 0.00 | 0.00 | 92 | 1022.1 |
| 20260831103003 | 67 | 351 | 0.0 | 0.0 | 0.00 | 0.00 | 0.00 | 91 | 1022.1 |
| 20260831102004 | 68 | 351 | 0.0 | 0.0 | 0.00 | 0.00 | 0.00 | 91 | 1022.0 |
| 20260831091003 | 68 | 350 | 0.0 | 0.0 | 0.00 | 0.00 | 0.00 | 91 | 1022.0 |
| 20260831090004 | 68 | 350 | 0.0 | 0.0 | 0.00 | 0.00 | 0.00 | 92 | 1022.0 |
| 20260831085004 | 68 | 350 | 0.0 | 0.0 | 0.00 | 0.00 | 0.00 | 91 | 1021.8 |
| 20260831084004 | 68 | 351 | 0.0 | 0.0 | 0.00 | 0.00 | 0.00 | 91 | 1021.9 |
| 20260831083003 | 68 | 351 | 0.0 | 0.0 | 0.00 | 0.00 | 0.00 | 91 | 1021.7 |
| 20260831082004 | 69 | 351 | 0.0 | 0.0 | 0.00 | 0.00 | 0.00 | 91 | 1021.6 |
| 20260831020003 | 73 | 350 | 0.0 | 0.0 | 0.00 | 0.00 | 0.00 | 88 | 1022.1 |
| 20260831000003 | 81 | 351 | 0.0 | 0.0 | 0.00 | 0.00 | 0.00 | 76 | 1020.6 |
| 20260830235002 | 82 | 351 | 0.0 | 0.0 | 0.00 | 0.00 | 0.00 | 73 | 1020.6 |
| 20260830234002 | 83 | 351 | 0.0 | 0.0 | 0.00 | 0.00 | 0.00 | 71 | 1020.6 |
| 20260830233002 | 84 | 351 | 0.0 | 0.0 | 0.00 | 0.00 | 0.00 | 71 | 1020.6 |
| 20260830232002 | 85 | 351 | 0.0 | 0.0 | 0.00 | 0.00 | 0.00 | 69 | 1020.6 |
| 20260830231003 | 85 | 351 | 0.0 | 2.0 | 0.00 | 0.00 | 0.00 | 69 | 1020.6 |
| 20260830230002 | 85 | 351 | 0.0 | 2.0 | 0.00 | 0.00 | 0.00 | 67 | 1020.7 |
| 20260830225002 | 87 | 350 | 1.0 | 3.0 | 0.00 | 0.00 | 0.00 | 64 | 1020.8 |
| 20260830224002 | 87 | 350 | 0.0 | 3.0 | 0.00 | 0.00 | 0.00 | 65 | 1020.8 |
| 20260830223003 | 87 | 350 | 2.0 | 3.0 | 0.00 | 0.00 | 0.00 | 66 | 1020.7 |
| 20260830222002 | 87 | 350 | 1.0 | 5.0 | 0.00 | 0.00 | 0.00 | 65 | 1020.7 |
| 20260830221002 | 87 | 348 | 0.0 | 3.0 | 0.00 | 0.00 | 0.00 | 64 | 1020.7 |
| 20260830220003 | 87 | 348 | 1.0 | 3.0 | 0.00 | 0.00 | 0.00 | 65 | 1020.8 |
| 20260830215003 | 87 | 348 | 2.0 | 6.0 | 0.00 | 0.00 | 0.00 | 64 | 1020.7 |